Change the Weather History Date:

Tuesday, August 19, 2014

  Actual Average Record
Temperature  
Mean Temperature 78 °F -  
Max Temperature 90 °F 88 °F 105 °F (1936)
Min Temperature 66 °F 63 °F 49 °F (1953)
Cooling Degree Days 13    
Growing Degree Days 28 (Base 50)    
Moisture  
Dew Point 68 °F    
Average Humidity 84    
Maximum Humidity 100    
Minimum Humidity 48    
Precipitation  
Precipitation 0.00 in - - ()
Sea Level Pressure  
Sea Level Pressure 29.79 in    
Wind  
Wind Speed 3 mph (SSE)    
Max Wind Speed 9 mph    
Max Gust Speed -    
Visibility 7 miles    
Events Fog , Rain , Thunderstorm    
Averages and records for this station are not official NWS values.
T = Trace of Precipitation, MM = Missing Value Source: NWS Daily Summary

Daily Weather History Graph

Daily Weather History Graph

Search for Another Location

Airport or City:

Trip Planner

Search our weather history database for the weather conditions in past years. The results will help you decide how hot, cold, wet, or windy it might be!

Date:

Astronomy

Aug. 19, 2014 Rise Set
Actual Time 6:26 AM CDT 7:57 PM CDT
Civil Twilight 5:58 AM CDT 8:25 PM CDT
Nautical Twilight 5:24 AM CDT 8:58 PM CDT
Astronomical Twilight 4:48 AM CDT 9:34 PM CDT
Moon 1:19 AM CDT (8/19) 3:53 PM CDT (8/19)
Length of Visible Light 14h 27m
Length of Day
13h 31m
Waning Crescent, 29% of the Moon is Illuminated
Aug 19
Waning Crescent
Aug 25
New
Sep 2
First Quarter
Sep 8
Full
Sep 15
Last Quarter

Hourly Weather History & Observations

Time (CDT) Temp. Heat Index Dew Point Humidity Pressure Visibility Wind Dir Wind Speed Gust Speed Precip Events Conditions
12:53 AM 69.1 °F - 68.0 °F 96% 29.78 in 7.0 mi SE 4.6 mph - N/A   Clear
1:53 AM 70.0 °F - 66.9 °F 90% 29.76 in 9.0 mi Calm Calm - N/A   Clear
2:53 AM 68.0 °F - 66.0 °F 93% 29.76 in 6.0 mi Calm Calm - N/A   Clear
3:08 AM 68.0 °F - 66.0 °F 93% 29.80 in 2.5 mi Calm Calm - N/A   Partly Cloudy
3:10 AM 68.0 °F - 66.0 °F 93% 29.80 in 1.0 mi Calm Calm - N/A   Mist
3:20 AM 68.0 °F - 66.9 °F 96% 29.80 in 2.0 mi Calm Calm - N/A   Partly Cloudy
3:28 AM 66.9 °F - 66.0 °F 97% 29.80 in 4.0 mi SE 3.5 mph - N/A   Partly Cloudy
3:38 AM 66.9 °F - 66.0 °F 97% 29.80 in 2.5 mi ESE 3.5 mph - N/A   Partly Cloudy
3:45 AM 66.9 °F - 66.0 °F 97% 29.80 in 5.0 mi Calm Calm - N/A   Partly Cloudy
3:53 AM 66.9 °F - 66.0 °F 97% 29.76 in 5.0 mi Calm Calm - N/A   Partly Cloudy
4:12 AM 66.9 °F - 66.0 °F 97% 29.79 in 2.5 mi Calm Calm - N/A   Mostly Cloudy
4:25 AM 66.9 °F - 66.0 °F 97% 29.78 in 0.8 mi East 3.5 mph - N/A   Mist
4:30 AM 66.9 °F - 66.0 °F 97% 29.78 in 0.2 mi ESE 3.5 mph - N/A Fog Fog
4:46 AM 66.9 °F - 66.0 °F 97% 29.78 in 0.8 mi ESE 3.5 mph - N/A   Mist
4:53 AM 66.9 °F - 66.0 °F 97% 29.75 in 0.5 mi ESE 3.5 mph - N/A Fog Fog
5:19 AM 66.9 °F - 66.0 °F 97% 29.80 in 1.8 mi ESE 3.5 mph - N/A   Mostly Cloudy
5:32 AM 66.0 °F - 66.0 °F 100% 29.79 in 2.0 mi SE 4.6 mph - N/A   Partly Cloudy
5:44 AM 66.0 °F - 66.0 °F 100% 29.80 in 5.0 mi SSE 3.5 mph - N/A   Partly Cloudy
5:53 AM 66.0 °F - 66.0 °F 100% 29.77 in 6.0 mi SSE 3.5 mph - N/A   Clear
6:53 AM 69.1 °F - 66.9 °F 93% 29.76 in 9.0 mi East 4.6 mph - N/A   Clear
7:53 AM 70.0 °F - 68.0 °F 93% 29.78 in 9.0 mi Calm Calm - N/A   Clear
8:16 AM 71.1 °F - 68.0 °F 90% 29.84 in 9.0 mi North 3.5 mph - 0.00 in Rain , Thunderstorm Light Rain
8:36 AM 72.0 °F - 69.1 °F 91% 29.84 in 9.0 mi South 5.8 mph - 0.00 in   Mostly Cloudy
8:53 AM 71.1 °F - 69.1 °F 93% 29.81 in 7.0 mi SSE 4.6 mph - 0.00 in Rain Light Rain
9:53 AM 73.9 °F - 70.0 °F 87% 29.82 in 10.0 mi Variable 3.5 mph - 0.00 in   Clear
10:53 AM 79.0 °F - 69.1 °F 72% 29.78 in 10.0 mi SSE 6.9 mph - N/A   Clear
11:46 AM 81.0 °F 84.1 °F 69.1 °F 67% 29.86 in 10.0 mi WSW 9.2 mph - N/A   Mostly Cloudy
11:53 AM 82.0 °F 85.5 °F 69.1 °F 65% 29.81 in 10.0 mi WSW 5.8 mph - N/A   Mostly Cloudy
12:08 PM 82.0 °F 85.9 °F 70.0 °F 67% 29.85 in 10.0 mi SW 5.8 mph - N/A   Scattered Clouds
12:53 PM 82.9 °F 86.5 °F 69.1 °F 63% 29.81 in 10.0 mi SW 5.8 mph - N/A   Clear
1:53 PM 86.0 °F 90.7 °F 70.0 °F 59% 29.80 in 10.0 mi West 6.9 mph - N/A   Clear
2:53 PM 88.0 °F 91.4 °F 68.0 °F 51% 29.78 in 10.0 mi SW 8.1 mph - N/A   Clear
3:53 PM 89.1 °F 92.1 °F 66.9 °F 48% 29.76 in 10.0 mi WSW 8.1 mph - N/A   Clear
4:53 PM 90.0 °F 93.6 °F 68.0 °F 48% 29.75 in 10.0 mi West 9.2 mph - N/A   Clear
5:53 PM 90.0 °F 93.6 °F 68.0 °F 48% 29.75 in 10.0 mi WSW 4.6 mph - N/A   Clear
6:53 PM 89.1 °F 93.7 °F 69.1 °F 52% 29.74 in 10.0 mi Calm Calm - N/A   Clear
7:53 PM 82.0 °F 87.4 °F 73.0 °F 74% 29.75 in 10.0 mi Calm Calm - N/A   Clear
8:53 PM 77.0 °F - 71.1 °F 82% 29.77 in 10.0 mi Calm Calm - N/A   Clear
9:53 PM 75.9 °F - 72.0 °F 87% 29.79 in 10.0 mi Calm Calm - N/A   Clear
10:53 PM 73.0 °F - 70.0 °F 90% 29.80 in 10.0 mi Calm Calm - N/A   Clear
11:53 PM 73.9 °F - 71.1 °F 91% 29.80 in 10.0 mi Calm Calm - N/A   Clear